Wind_Speed
15 16 18 17 15 15 15 14 14 16 15 12 10 10 9 10 12 12 13 13 13 13 13 13 13 14 16 17 18 18 18 18 18 19 20 22 23 25 26 26 27 28 29 30 32 33 34 34 35 36 37 37 39 40 41 42 43 44 45 46 46 46 47 47 47 48 48 49 50 50 51 52 54 55 56 58 59 60 61 62 64 65 66 68 69 70 71 71
13 12 12 13 13 13 14 14 13 11 10 8 9 8 8 8 9 9 10 11 11 12 12 12 12 12 13 14 14 15 15 16 16 17 18 19 21 23 24 24 25 25 26 27 29 30 31 32 33 34 35 35 36 37 38 39 39 39 40 40 40 41 42 43 44 45 46 46 47 49 50 51 52 53 54 54 55 56 58 59 61 62 64 66 67 68 69 70
12 11 9 8 7 9 10 10 9 7 7 7 7 6 6 5 4 5 6 7 7 8 9 9 10 10 11 11 12 12 13 14 14 16 17 18 19 20 21 22 23 24 25 27 28 29 29 30 30 30 31 32 33 33 34 34 34 34 35 35 37 38 39 41 42 43 44 45 46 47 47 48 49 49 50 51 53 55 57 59 61 62 63 65 66 67 69 70
11 10 9 7 6 7 7 6 5 4 3 4 4 3 3 2 2 3 4 5 6 7 7 8 8 9 10 11 11 11 12 13 14 15 15 16 17 18 19 20 22 23 24 25 25 25 25 25 25 26 27 27 28 28 29 29 30 31 32 33 35 37 38 39 40 41 42 43 43 43 44 45 47 48 51 53 55 57 58 60 62 63 64 66 66 67 69 70
11 11 10 8 7 7 7 5 4 4 4 4 4 3 3 3 3 4 5 6 6 7 8 8 9 9 10 10 11 12 12 12 13 13 13 14 15 17 18 19 20 20 20 20 20 20 20 21 22 22 23 23 24 25 26 27 28 30 31 32 33 34 35 36 37 38 38 39 40 42 44 46 48 50 52 54 55 57 57 59 60 61 63 64 65 66 67 68
10 12 11 9 8 7 5 4 3 3 4 5 5 4 3 2 3 4 5 6 6 7 7 8 8 8 8 8 8 8 9 9 9 10 11 12 14 15 15 15 15 15 15 15 15 16 17 18 19 20 21 22 23 24 25 26 27 28 29 30 30 31 32 33 34 35 37 39 41 43 44 46 47 48 49 50 51 52 53 54 56 57 59 60 61 63 63 64
9 11 11 10 9 8 6 5 4 4 3 3 3 2 2 3 4 5 6 6 7 6 6 7 6 6 6 6 5 4 5 6 6 7 9 10 10 10 10 10 10 10 11 11 12 14 15 16 17 19 20 21 22 23 23 24 24 25 26 27 28 29 30 31 33 35 37 38 39 40 41 41 42 43 44 46 47 48 49 50 51 52 54 56 57 58 59 60
7 10 11 11 10 9 8 7 6 4 3 3 3 3 4 5 6 7 7 8 9 8 6 6 6 5 4 4 4 4 2 3 4 4 5 5 5 5 6 6 7 8 9 10 12 13 14 15 16 18 19 19 20 20 21 21 22 23 24 25 26 27 29 31 32 34 34 35 37 38 39 41 42 43 44 45 46 47 47 47 47 48 49 50 51 52 53 54
6 8 10 11 11 10 9 7 5 3 4 4 5 6 7 8 9 9 10 10 11 12 10 8 7 7 5 4 4 3 2 1 1 2 3 4 4 5 5 6 7 8 9 10 11 12 13 13 14 16 16 17 18 19 19 20 21 22 23 24 25 27 28 29 30 32 35 37 40 41 44 45 45 45 45 46 47 47 47 45 44 43 43 44 45 46 47 48
7 8 9 9 8 8 6 5 5 6 7 8 9 10 11 12 12 13 13 13 13 14 13 11 8 7 6 7 8 7 5 4 5 6 6 6 6 6 6 7 7 8 8 8 9 10 11 12 13 13 15 17 18 18 19 20 20 21 22 24 25 25 27 30 35 38 40 42 44 46 47 48 47 46 47 49 51 51 50 48 45 42 41 40 41 42 43 44
10 10 10 9 9 9 9 10 11 12 13 14 14 15 15 16 16 15 15 15 15 15 15 13 10 8 10 11 10 8 7 7 7 8 7 7 6 6 7 7 6 6 6 7 8 9 10 11 12 13 15 17 17 18 18 19 20 21 22 23 24 26 32 38 41 43 44 46 47 49 50 50 50 49 51 53 54 55 54 52 49 46 43 41 40 40 40 41
13 13 13 13 14 15 16 17 17 17 17 17 17 17 17 18 18 19 18 18 17 17 16 14 12 11 11 12 10 7 7 7 8 8 7 6 7 7 7 6 6 6 6 7 9 9 10 11 12 13 16 17 17 17 18 19 21 21 23 24 26 33 39 42 44 46 48 49 50 51 52 54 54 53 54 56 58 59 59 58 55 52 49 46 44 42 42 41
19 20 20 21 21 22 22 22 22 21 21 21 21 21 21 21 21 21 20 19 18 17 15 13 11 10 11 12 9 6 7 9 9 8 8 8 9 8 6 6 6 6 7 8 8 9 10 12 13 15 17 16 16 17 18 19 21 22 25 27 32 39 43 45 47 48 50 51 52 54 56 57 58 58 58 59 61 63 64 64 62 60 57 54 51 48 47 46
26 26 26 26 26 26 26 25 24 24 24 24 24 24 24 23 21 20 19 17 15 14 13 11 8 8 11 11 8 8 10 11 10 10 11 10 9 7 6 7 7 7 8 9 10 11 12 14 15 16 16 15 15 17 19 20 23 26 29 33 38 43 45 47 48 50 53 55 56 57 59 61 62 62 62 63 65 68 69 69 69 67 65 63 60 58 56 53
29 29 29 28 28 27 27 26 26 26 26 26 25 24 23 21 19 18 17 15 13 12 12 10 8 9 12 11 10 12 13 12 12 12 11 9 7 7 7 8 8 9 10 11 11 12 14 14 15 15 15 15 16 18 20 23 27 30 33 38 42 45 46 47 50 55 57 58 59 60 62 64 65 66 66 67 69 72 74 74 74 74 72 71 69 67 65 62
31 30 29 29 28 28 27 26 26 25 24 23 23 22 20 19 17 16 15 14 13 11 11 10 10 11 13 12 12 14 14 12 12 11 9 7 7 7 8 8 9 10 11 12 12 13 14 15 17 16 16 16 18 21 24 27 31 34 38 42 45 46 47 49 54 59 60 60 62 63 64 66 68 70 70 71 73 76 77 78 78 77 77 76 74 73 71 69
33 31 30 29 28 28 27 25 24 23 21 20 19 18 17 16 16 14 13 13 12 11 10 11 11 13 14 14 13 13 13 12 12 10 8 8 8 8 9 9 10 11 12 13 15 16 17 19 19 18 18 19 22 25 28 32 36 38 42 44 46 48 49 53 58 61 62 63 64 66 67 69 71 73 74 75 77 78 79 80 79 79 79 78 77 76 75 72
33 31 30 29 28 26 25 24 23 21 20 19 17 16 15 14 14 13 13 13 13 12 10 11 12 14 15 14 13 12 12 11 11 9 8 8 8 9 10 11 11 13 15 17 19 20 20 22 22 22 22 24 27 30 33 37 39 42 44 46 48 50 52 57 61 63 64 65 66 68 69 71 73 75 77 78 79 80 80 80 80 79 79 78 77 77 76 74
31 30 29 27 26 25 24 22 21 20 19 18 17 15 14 13 13 13 13 13 13 11 10 11 13 14 15 14 12 10 11 11 11 10 9 9 9 11 12 13 13 15 19 21 23 23 24 25 25 25 26 28 31 34 36 39 41 43 46 48 50 52 55 60 63 64 65 66 68 69 71 73 75 76 78 79 79 80 80 79 79 79 78 78 77 76 75 74
30 29 27 26 25 24 22 21 19 18 17 16 15 14 13 13 13 13 13 13 12 11 11 12 13 14 15 14 11 10 10 11 10 10 9 10 11 13 14 14 16 18 21 24 25 26 27 28 27 28 30 33 35 36 38 40 43 45 47 49 51 54 57 61 63 65 66 68 69 70 72 74 76 77 78 79 79 79 79 79 78 78 78 78 77 76 75 73
29 28 27 25 24 22 20 19 17 16 15 15 14 14 14 13 13 13 12 12 13 11 12 13 13 14 14 13 12 10 9 9 9 9 10 12 13 14 15 17 19 21 23 26 28 29 29 30 31 32 34 35 37 38 40 41 43 45 48 50 52 55 59 62 64 66 67 68 69 71 73 75 77 78 79 79 79 78 78 78 78 78 77 77 76 75 74 73
27 26 25 23 21 19 17 16 15 15 15 14 14 14 14 13 13 13 12 13 14 12 12 12 13 13 13 12 11 9 8 7 8 9 11 13 15 16 18 20 22 24 26 28 30 31 32 32 33 35 36 37 38 39 40 42 44 46 48 51 53 56 60 63 64 66 68 68 70 72 74 76 77 78 79 79 79 78 78 77 77 77 77 76 76 75 74 73
26 24 22 20 18 16 15 14 14 14 14 14 13 14 14 14 14 13 12 14 14 12 11 11 11 11 11 10 9 8 6 5 8 10 11 13 16 18 21 23 24 26 28 30 31 33 34 34 35 36 37 38 38 39 41 42 44 46 48 51 54 58 61 63 65 66 67 68 70 72 74 76 77 79 79 79 79 79 78 78 77 77 77 76 76 75 75 74
23 20 18 16 15 14 14 14 14 14 14 13 14 14 15 15 15 13 13 14 14 11 9 9 9 8 8 8 7 6 5 5 8 10 11 13 16 19 22 24 26 27 29 30 32 34 35 35 36 36 37 38 39 40 41 43 44 46 49 51 55 59 62 63 65 66 67 68 70 72 75 76 78 79 80 80 80 79 78 78 78 78 78 77 77 77 76 76
18 16 15 14 14 14 14 14 14 14 14 14 15 15 15 15 14 13 13 13 13 10 8 7 6 6 5 4 4 4 4 6 9 10 11 13 16 19 21 24 26 28 30 31 32 34 35 36 36 36 37 38 39 40 42 43 45 47 49 52 56 59 62 63 64 65 67 68 70 72 75 77 79 80 81 81 80 80 79 79 79 79 79 79 79 79 79 78
16 14 14 13 13 13 13 14 14 14 15 15 15 15 15 14 14 13 12 12 12 10 6 5 5 3 2 1 2 3 4 7 9 10 12 13 15 18 21 23 26 28 31 32 33 33 35 36 36 36 37 38 39 41 43 44 45 48 50 53 56 60 62 63 64 65 66 68 70 73 75 78 80 81 81 81 81 80 80 80 80 80 80 80 80 80 80 80
15 14 14 13 13 13 13 14 14 14 15 15 15 14 14 13 13 12 12 11 10 8 5 4 3 2 2 1 3 4 5 8 10 11 13 14 16 18 20 23 25 28 31 33 33 33 35 36 36 37 37 39 40 41 43 44 46 49 51 54 57 60 62 63 64 64 66 68 71 73 76 79 80 81 81 81 81 81 81 81 81 81 81 81 81 81 81 81
15 14 14 13 13 13 13 14 14 15 14 14 14 13 13 12 12 11 11 9 8 8 6 3 1 2 3 3 4 6 7 8 10 12 13 15 16 18 21 23 25 27 30 33 34 33 34 36 36 37 38 39 40 42 43 45 47 49 52 54 57 60 62 63 63 64 66 68 71 74 76 78 80 80 81 82 82 82 82 81 81 82 82 82 83 83 82 83
15 14 13 13 13 13 13 14 15 15 15 15 14 14 13 12 11 11 10 10 9 8 7 5 2 2 3 4 6 7 8 9 11 13 14 16 17 19 21 23 24 26 29 33 34 33 34 35 36 37 38 39 40 42 44 46 48 50 52 54 57 60 61 62 63 64 66 69 71 74 76 78 79 80 81 82 82 82 82 82 82 82 82 83 83 83 84 84
14 14 13 13 13 13 14 14 15 15 16 16 15 15 14 13 12 11 11 10 10 9 8 7 5 4 4 5 7 8 9 10 12 14 15 16 18 19 20 22 24 26 29 32 35 34 34 35 36 37 38 39 40 42 44 46 49 50 52 55 57 59 61 62 62 63 66 68 71 74 76 78 79 80 81 82 82 82 83 82 82 82 82 83 83 84 84 84
15 14 14 13 13 13 14 14 15 15 15 16 16 16 15 15 14 13 12 11 10 10 9 8 7 6 6 7 9 10 11 12 13 15 16 16 18 19 21 23 25 27 29 32 35 35 34 35 36 36 38 39 41 43 45 47 49 51 53 55 57 60 61 61 61 63 65 68 71 74 76 78 79 80 81 81 82 83 83 82 82 82 82 82 83 83 84 84
15 14 14 13 13 13 13 13 13 14 14 14 15 15 15 15 15 14 13 13 11 10 9 8 8 8 8 8 10 11 13 14 15 16 17 17 18 19 21 23 25 27 29 31 34 35 34 35 36 36 38 40 42 43 45 47 49 51 53 55 57 59 61 61 61 63 66 68 71 74 76 78 79 80 81 82 83 83 83 82 82 82 82 82 82 82 83 84
14 14 13 13 12 12 11 11 11 12 12 13 14 15 15 14 14 14 14 14 13 13 11 10 10 9 9 9 10 11 13 15 16 17 18 19 19 19 21 23 25 27 29 31 34 35 34 34 35 36 38 40 42 44 45 47 49 51 52 55 57 58 60 60 61 63 65 68 71 74 76 77 79 81 82 83 83 83 83 82 82 82 82 81 81 81 82 83
12 11 11 10 9 8 8 9 9 10 12 13 15 15 15 14 14 13 13 13 13 14 14 13 12 11 11 11 11 12 13 14 16 17 18 19 20 20 21 23 25 27 29 31 34 34 33 33 35 36 38 40 41 44 45 47 49 50 52 54 56 58 59 60 61 63 65 68 72 74 76 77 80 81 82 83 84 84 84 82 82 81 81 81 81 81 82 83
9 9 8 7 6 5 6 7 8 9 11 13 15 16 15 14 13 13 12 13 13 14 15 15 15 14 13 13 13 13 14 15 16 17 17 18 19 20 22 23 25 26 28 31 33 33 32 33 34 36 37 39 41 44 45 47 49 50 52 54 55 57 58 59 61 64 66 68 72 74 76 78 81 82 83 84 85 85 84 83 82 82 81 80 80 81 82 83
8 7 6 4 3 4 4 6 7 9 11 14 15 15 15 14 13 12 12 12 13 13 14 16 16 16 16 16 16 16 16 16 16 16 17 17 18 19 20 22 23 25 28 30 32 32 31 32 34 35 37 39 41 43 45 47 49 50 52 53 54 56 57 58 60 63 65 69 72 74 76 78 81 83 84 85 86 85 85 84 83 83 82 80 80 81 82 83
7 5 3 1 2 3 5 7 9 11 13 14 15 15 14 14 13 12 12 12 12 13 14 15 16 17 17 17 17 18 18 18 18 17 17 18 18 19 19 20 22 24 27 29 31 30 30 31 33 35 37 39 41 43 44 46 48 50 52 53 54 55 55 56 57 60 63 67 71 73 75 77 80 82 84 85 86 86 85 84 84 84 82 81 80 81 82 84
4 2 0 2 3 5 7 9 11 12 14 14 14 14 14 13 12 12 11 11 12 13 14 15 16 17 17 18 18 18 19 19 19 19 18 18 18 19 19 20 22 24 26 28 28 28 29 31 32 34 37 39 40 42 44 46 47 49 51 53 54 54 54 55 57 59 62 66 68 71 74 76 79 82 83 85 86 86 85 85 85 84 82 80 81 82 83 84
1 2 3 4 6 8 10 11 12 13 14 14 13 13 13 13 12 12 11 11 12 13 15 15 16 17 17 18 18 18 19 20 19 20 20 19 19 19 19 20 22 23 25 26 26 27 29 30 32 34 36 38 40 42 44 45 47 48 50 52 53 53 54 55 57 60 63 66 67 69 73 76 78 81 82 83 85 85 84 84 84 83 80 79 80 81 83 84
3 4 5 7 8 10 11 12 13 14 14 14 13 13 13 13 12 12 12 12 13 14 15 16 16 17 18 18 18 18 19 19 20 20 21 21 20 19 19 20 21 23 23 23 24 26 28 30 31 34 36 38 39 41 43 45 47 48 50 51 52 52 53 54 57 61 64 67 68 69 72 75 78 80 81 82 83 83 82 82 82 80 79 78 79 80 82 83
5 6 7 8 9 11 12 13 14 14 15 14 14 14 14 13 13 13 13 14 14 15 15 15 16 16 17 18 18 18 19 19 20 20 21 21 20 19 18 19 20 21 21 22 24 26 28 29 31 34 36 37 39 40 42 44 46 48 49 50 50 51 52 53 57 61 65 67 68 70 72 75 78 80 81 82 82 82 81 81 80 79 77 77 78 79 81 82
7 8 8 9 10 11 12 13 14 15 16 16 16 16 16 15 14 14 14 14 14 14 14 14 15 16 17 18 18 18 18 19 19 20 20 20 19 19 18 19 19 19 20 22 24 26 27 29 31 34 35 37 39 40 42 43 46 48 49 49 49 50 51 52 56 61 65 67 69 71 72 74 77 79 81 82 82 81 80 80 79 78 77 77 78 79 81 82
8 9 9 10 10 11 12 14 15 16 17 18 18 18 18 17 16 15 15 14 14 14 13 13 14 15 16 17 18 18 18 19 19 19 19 19 19 18 18 19 19 19 20 23 25 26 27 29 31 34 36 37 39 40 41 43 45 47 49 49 49 50 51 52 56 61 64 66 68 71 73 74 77 79 81 82 83 82 81 80 78 77 77 77 78 80 81 83
8 8 9 10 11 12 13 15 16 17 18 19 19 20 20 19 17 16 15 15 14 14 13 13 14 15 16 17 17 18 18 18 19 19 19 19 18 18 19 19 20 21 22 24 25 26 27 29 31 33 35 37 39 40 41 43 45 47 48 48 48 49 50 51 55 60 63 65 68 70 73 75 77 79 80 82 82 82 82 80 78 76 77 78 80 81 82 83
8 8 9 10 11 12 14 15 17 18 18 19 19 20 21 21 20 19 17 16 15 14 14 14 14 15 15 16 17 18 18 19 19 19 19 19 19 19 20 21 22 23 24 24 26 27 28 29 31 33 35 37 39 39 40 42 45 47 48 49 48 48 50 51 53 58 61 64 67 70 72 75 77 79 81 82 82 83 84 82 79 76 77 79 81 82 83 84
10 10 10 12 12 13 15 17 18 19 19 19 19 19 21 22 22 21 20 18 17 16 15 15 14 15 15 15 16 17 18 19 20 20 20 21 21 21 22 23 24 24 25 25 26 27 29 31 32 33 35 37 39 40 40 42 44 46 48 49 48 48 49 50 53 56 60 63 67 69 71 74 76 78 80 82 82 82 84 84 80 77 78 80 81 82 83 84
12 12 13 14 14 15 17 19 20 20 19 19 19 19 21 23 24 24 22 21 19 18 17 16 16 16 15 15 16 17 18 19 20 21 22 22 23 24 24 25 25 25 25 25 26 28 30 31 33 35 37 39 40 41 41 42 44 45 48 49 49 48 49 50 52 56 59 62 65 68 69 72 74 77 78 80 81 81 83 84 81 78 78 80 82 83 84 85
15 15 16 17 17 18 19 21 21 20 20 20 20 21 22 24 25 25 24 23 21 20 18 18 17 17 17 16 17 18 19 20 21 21 22 23 24 25 25 26 26 26 26 26 27 28 30 32 33 35 37 40 42 42 42 42 43 45 47 49 49 48 48 49 52 55 59 62 64 66 68 70 73 75 77 78 80 80 81 83 81 78 78 80 82 84 86 86
18 18 18 19 19 20 22 22 21 21 21 22 22 23 24 26 26 26 25 24 22 21 20 19 19 19 18 18 18 18 19 20 21 22 23 24 24 25 26 27 27 27 27 27 28 29 30 32 34 35 36 40 42 43 43 43 43 45 47 48 48 47 47 48 51 55 59 61 63 65 67 70 72 74 76 77 79 80 80 82 82 79 78 79 82 84 87 88
20 20 20 21 22 23 23 23 21 21 22 23 24 25 26 27 27 27 26 24 23 22 22 21 20 20 20 19 19 19 20 21 22 22 23 24 25 26 27 27 28 28 28 28 29 30 32 33 35 36 38 40 42 43 43 43 43 45 47 48 48 48 47 47 50 55 58 60 62 64 67 69 71 73 75 76 78 79 79 81 82 80 79 79 82 84 87 89
23 23 23 23 24 24 23 22 22 22 23 24 26 27 27 27 27 27 26 24 23 23 22 22 22 21 21 21 20 21 21 22 23 23 24 25 26 26 27 28 29 29 29 29 30 31 32 34 36 38 40 41 42 43 43 43 43 45 47 48 48 48 47 47 50 54 56 58 61 63 65 68 71 73 75 76 77 79 79 80 81 82 80 80 81 84 87 89
26 26 26 25 24 24 23 23 23 23 24 26 27 27 27 27 27 27 26 25 24 24 24 24 24 23 22 22 22 23 23 23 24 24 25 25 26 27 28 29 30 30 30 30 31 31 32 34 37 39 40 40 41 43 44 43 43 45 47 48 49 48 48 48 50 53 55 57 60 62 64 67 70 72 74 76 77 78 79 80 80 82 82 80 81 83 86 89
Wind_Direction
134 125 121 126 133 136 141 145 138 137 141 141 141 141 138 141 145 149 153 158 166 174 182 191 200 210 220 227 232 237 240 244 247 250 252 255 258 262 266 269 271 273 274 276 277 279 280 281 282 282 283 283 283 284 285 286 287 289 290 291 292 293 294 295 296 297 297 298 298 298 299 299 299 300 300 301 302 302 302 301 301 300 299 299 298 297 296 295
158 148 132 121 122 132 140 147 148 145 145 143 146 148 147 149 152 158 160 162 165 169 175 182 189 197 205 213 220 226 232 237 243 248 252 255 259 262 265 268 271 273 276 278 279 280 281 282 283 284 285 285 286 288 289 290 291 292 293 294 296 296 297 297 298 299 300 301 302 302 303 304 304 304 304 303 302 301 300 299 298 297 295 295 294 292 291 290
172 173 164 148 131 132 133 135 137 135 134 137 144 148 151 152 158 169 176 179 180 181 183 185 189 194 199 205 212 219 228 235 240 246 250 254 258 261 265 269 273 276 278 279 280 281 283 284 286 287 289 290 291 292 292 293 294 295 296 297 298 298 300 301 303 304 305 307 307 307 307 306 306 304 303 301 300 298 297 296 295 293 292 291 290 288 287 286
173 180 183 183 175 160 154 148 147 147 151 158 165 170 176 189 191 187 188 190 193 195 198 200 203 206 209 213 217 222 230 236 241 246 252 256 261 266 270 273 275 277 278 280 283 285 288 289 290 291 292 293 294 295 295 297 298 299 300 301 303 305 307 308 310 310 310 310 309 308 307 305 304 303 302 301 299 298 296 295 293 292 291 289 288 287 286 284
174 178 183 191 193 180 176 179 183 201 219 222 223 232 242 236 215 199 191 190 191 194 198 202 206 212 216 220 225 229 233 238 245 251 258 264 267 269 271 273 276 279 282 286 289 291 293 292 293 294 295 296 297 299 300 303 304 306 308 309 310 312 313 313 313 312 310 310 309 309 308 307 306 305 303 301 299 298 297 296 294 293 291 290 289 287 286 284
183 181 181 183 191 194 193 193 206 240 245 240 243 250 249 224 197 185 181 181 182 183 189 196 201 206 211 217 222 229 235 241 249 255 261 265 267 270 274 278 285 290 294 295 295 295 296 296 298 300 301 304 305 308 310 313 314 314 314 314 314 314 313 312 311 311 312 313 313 313 312 310 309 307 307 307 306 305 304 302 300 298 295 293 291 289 288 286
198 193 190 185 189 198 204 216 249 270 256 234 229 224 197 175 163 162 159 158 158 161 168 174 179 187 194 197 199 208 226 240 252 259 265 269 275 281 289 297 302 304 304 304 304 305 306 308 310 310 313 315 316 318 319 318 317 315 315 315 314 313 313 313 315 318 319 319 319 320 319 319 320 321 321 320 319 317 314 311 308 305 302 298 296 293 291 289
213 208 204 203 205 214 227 244 260 256 220 187 177 169 157 150 145 142 141 140 134 129 132 139 140 138 144 159 169 177 201 246 266 274 285 297 306 316 322 323 321 321 322 321 320 318 318 319 319 320 322 322 322 321 318 315 314 314 315 314 314 317 320 322 324 326 328 331 334 336 338 339 339 337 336 334 332 329 325 320 316 312 309 305 302 299 296 294
192 195 202 209 217 226 236 240 235 202 170 157 148 140 132 126 122 120 122 126 124 119 114 113 112 102 104 126 126 111 82 356 349 21 24 22 15 6 354 347 344 339 336 332 328 326 327 327 325 326 324 321 319 315 314 315 315 316 317 318 323 327 329 333 338 342 346 349 351 352 353 352 350 348 347 346 344 341 338 333 328 322 317 313 309 305 302 300
159 164 173 186 196 203 203 187 165 149 139 131 124 120 116 112 113 115 117 119 119 117 110 101 96 98 103 99 87 76 69 67 66 61 50 40 27 12 6 2 356 350 346 339 335 335 333 330 328 325 318 315 315 316 318 319 319 322 324 329 335 337 343 351 356 357 358 358 358 359 358 357 356 356 355 355 354 352 349 346 341 336 330 325 321 317 313 310
149 149 150 153 156 153 147 139 132 127 123 118 116 114 114 115 115 114 113 111 108 105 101 97 94 95 93 86 78 70 67 66 61 55 44 34 24 21 23 17 14 9 357 346 344 340 335 331 324 318 316 317 320 323 324 323 327 332 336 343 349 355 1 3 3 2 2 1 1 1 1 1 2 1 1 1 0 359 358 356 352 349 344 340 336 332 329 324
138 137 135 133 133 131 127 125 122 119 117 115 115 114 114 115 113 109 106 104 100 96 94 94 90 84 83 80 75 66 64 63 57 55 50 47 46 47 45 37 36 23 359 357 353 341 333 324 316 319 324 325 328 329 328 332 339 344 351 358 4 6 6 4 4 4 3 2 2 2 3 4 4 4 4 4 4 4 4 3 1 359 356 353 350 347 344 340
124 124 123 122 122 122 121 119 118 116 115 113 112 111 109 108 107 106 103 100 97 95 93 89 84 82 78 74 72 69 69 69 68 71 71 68 66 61 52 44 40 21 3 4 352 336 327 316 320 332 332 330 333 335 337 345 352 358 5 9 9 8 6 5 5 4 3 3 3 4 5 5 6 6 7 7 7 7 7 7 6 6 4 2 359 357 354 352
117 118 119 120 120 120 119 118 116 115 113 111 109 108 107 106 106 105 103 100 98 96 93 88 84 82 76 73 78 81 79 82 84 83 79 75 74 64 47 39 35 20 9 4 348 335 324 319 333 341 337 336 338 342 349 357 4 9 12 11 8 7 5 5 5 3 3 3 4 5 6 7 7 7 8 9 9 9 9 8 8 8 7 6 4 2 360 357
116 118 119 119 119 118 117 115 113 112 111 110 109 109 108 108 108 106 104 102 99 94 92 89 83 76 78 84 89 89 90 92 89 85 83 79 73 57 40 32 29 20 12 4 350 337 329 336 351 349 341 341 345 354 3 8 13 14 13 10 8 6 5 5 5 3 3 5 6 7 7 7 7 8 9 10 11 10 9 9 8 8 7 6 5 3 1 359
116 117 117 116 115 113 111 109 108 107 107 108 109 109 109 109 108 105 104 102 98 91 89 88 83 80 87 94 95 94 95 95 90 88 85 73 61 49 36 29 27 20 14 7 356 348 349 360 4 354 347 350 358 8 13 15 16 15 13 10 7 5 5 6 4 3 4 6 7 8 8 8 8 9 10 11 11 11 10 9 8 7 6 5 4 3 1 359
117 116 114 112 110 108 106 105 105 104 104 105 106 107 107 107 106 104 102 98 92 88 85 86 86 90 96 98 96 97 98 94 91 88 78 65 56 46 36 29 24 21 17 12 9 8 9 12 9 1 359 5 12 16 17 18 17 14 12 8 6 6 6 5 3 3 5 7 8 8 8 8 9 9 10 11 11 10 9 8 7 6 5 4 3 2 0 358
116 113 111 109 107 105 105 104 105 105 105 104 103 102 102 101 100 99 94 87 83 81 82 90 95 101 103 101 99 100 99 93 87 81 71 62 54 43 34 26 21 20 21 21 20 18 17 17 13 9 11 15 19 20 19 18 16 13 10 8 6 5 5 3 2 4 6 7 8 8 8 8 9 9 10 11 11 10 8 7 6 6 5 4 3 1 360 358
113 110 108 106 105 104 104 103 104 104 104 103 101 99 97 93 90 86 82 77 76 78 87 98 105 109 108 105 104 102 97 91 85 78 69 57 46 38 31 25 23 25 27 26 24 21 20 20 16 15 18 21 22 21 19 17 14 11 8 6 5 4 3 2 2 4 6 7 8 8 8 8 9 9 10 11 10 9 8 7 6 5 4 4 3 1 359 357
111 109 107 106 105 104 103 102 100 98 98 98 98 95 90 84 80 77 74 73 75 82 98 108 112 113 111 107 105 99 94 91 86 77 62 48 40 36 31 28 28 29 28 26 24 22 23 21 18 19 22 23 22 20 18 16 12 9 6 4 3 3 2 1 3 5 6 7 7 7 7 8 9 9 10 10 10 9 8 6 6 5 4 3 2 1 360 358
110 108 107 105 103 100 98 95 93 93 92 90 87 84 80 77 75 73 71 71 77 90 106 113 114 113 110 108 107 102 94 89 79 62 49 43 39 36 32 31 31 30 28 26 24 23 23 20 19 21 22 22 21 19 17 14 10 7 4 3 2 2 1 2 3 5 6 6 6 6 7 8 8 8 9 10 10 9 8 6 6 5 4 3 2 1 360 358
109 107 105 102 98 94 91 88 86 84 80 77 74 74 74 73 72 71 68 69 77 94 111 115 115 112 109 109 110 105 93 79 62 47 43 43 38 34 32 31 30 28 26 25 23 22 22 19 18 21 22 21 20 19 16 13 9 6 3 2 2 1 1 2 4 5 5 5 5 6 6 7 7 8 9 9 9 8 7 6 6 5 4 3 2 1 0 359
109 106 102 97 92 88 85 83 80 76 73 73 74 74 74 71 69 67 64 66 74 93 113 117 116 113 108 108 108 102 86 59 48 42 42 41 36 32 31 29 26 25 24 23 22 21 20 18 18 21 22 21 19 17 15 12 8 5 3 2 1 1 1 2 4 5 5 5 5 5 6 7 7 7 8 8 8 8 7 6 5 5 4 3 2 1 1 360
107 103 97 91 88 86 83 81 79 76 75 76 76 74 72 68 65 64 61 62 68 86 113 122 121 117 110 108 104 93 71 39 37 37 35 33 31 29 27 25 23 21 20 20 20 19 18 17 18 20 20 20 18 15 13 10 7 4 3 2 1 1 2 3 4 4 4 5 4 5 6 6 6 7 7 7 7 7 6 6 5 5 4 3 2 1 1 360
104 99 95 92 91 88 85 83 79 76 74 73 73 71 68 65 62 61 59 59 62 75 103 126 130 126 117 110 93 72 42 23 24 23 21 22 23 24 21 20 20 18 17 17 17 17 15 16 18 18 19 18 16 14 12 9 6 4 3 2 1 1 2 3 3 4 4 4 4 5 6 6 6 7 7 6 6 6 6 6 5 5 4 3 2 1 0 360
106 103 101 98 95 91 86 82 77 73 70 68 66 64 62 60 58 56 56 56 58 66 90 128 141 150 152 109 36 13 9 8 8 8 9 10 15 17 15 14 15 14 13 14 15 14 13 15 16 17 18 17 15 13 11 8 5 4 3 2 1 1 2 3 3 3 3 4 4 5 6 6 6 6 6 6 5 5 5 5 5 4 3 2 1 0 360 359
112 108 105 99 94 88 82 76 71 67 64 62 60 58 56 54 53 51 50 50 54 62 81 120 146 194 235 294 323 327 344 353 353 356 358 360 7 11 9 9 10 9 10 12 12 11 11 13 14 15 16 16 14 12 9 7 5 3 2 1 1 1 3 3 3 3 3 3 4 5 6 6 6 6 5 5 5 5 5 5 5 4 2 1 0 360 359 359
113 108 102 96 88 82 76 71 67 65 63 61 59 57 53 50 48 46 44 45 48 52 60 81 144 232 258 289 301 311 327 337 340 345 348 351 359 4 4 4 5 5 7 9 9 8 10 12 13 14 14 14 12 10 7 6 4 3 2 1 0 1 3 3 3 3 3 3 4 6 6 6 6 5 5 4 5 5 5 5 5 3 2 1 360 359 359 358
112 106 100 94 88 81 76 70 66 62 59 58 55 53 50 46 43 41 38 37 37 36 36 37 22 282 277 284 292 301 313 321 328 334 338 344 352 356 356 357 358 360 3 6 6 5 8 10 11 12 12 12 10 8 6 5 4 3 2 1 0 1 2 3 3 3 3 3 4 6 6 6 6 5 5 5 5 5 5 5 5 3 2 0 359 358 358 358
112 108 104 98 92 84 76 68 62 57 52 48 45 42 39 37 34 32 29 26 26 25 23 16 2 336 305 287 286 294 304 311 317 323 329 338 346 348 348 349 351 354 359 3 3 3 5 8 10 10 11 10 9 7 6 5 3 2 1 -0 -0 1 2 2 2 3 3 3 4 6 6 6 6 6 5 5 5 6 6 5 5 3 1 360 359 358 357 357
115 113 109 104 96 86 77 69 61 55 49 43 38 32 28 25 21 19 17 14 15 17 13 3 353 340 322 305 295 293 297 303 308 315 322 331 338 340 340 342 345 349 354 359 -0 -0 3 7 8 9 9 9 8 7 6 4 3 1 0 359 359 360 0 1 2 2 3 3 4 6 6 6 6 6 5 5 6 6 6 5 5 3 1 359 358 358 357 357
118 115 111 105 97 88 80 73 65 58 50 41 33 26 20 16 12 8 4 1 2 5 3 355 346 338 329 318 308 299 296 296 300 307 315 323 329 331 334 338 340 345 350 355 357 358 1 5 6 7 8 8 7 6 5 3 2 0 359 359 359 359 359 360 1 2 3 3 4 5 6 6 6 5 5 6 6 7 7 6 5 3 1 359 358 357 357 357
119 117 113 106 97 89 81 73 64 54 44 34 25 17 12 7 3 360 355 352 350 348 349 348 342 335 331 326 318 310 303 300 300 304 308 312 317 322 327 332 336 341 346 350 353 355 359 3 5 6 7 7 6 5 4 2 1 360 359 358 358 358 359 360 1 2 2 3 4 5 5 6 6 6 6 6 7 7 7 6 5 3 1 359 358 357 357 357
121 119 114 104 92 80 69 57 47 38 29 21 13 7 3 359 354 350 347 344 341 338 339 340 338 334 332 329 324 319 315 312 309 307 307 307 309 312 317 322 328 336 342 347 350 353 357 1 3 5 6 6 5 3 2 1 0 360 359 358 358 358 359 0 1 2 3 4 4 5 5 6 6 6 6 6 7 7 7 6 5 3 1 359 358 357 357 357
125 122 115 99 77 58 44 32 23 18 13 8 3 360 356 351 347 343 341 338 335 333 332 332 334 334 332 331 329 326 323 322 318 316 313 311 311 311 312 316 322 330 337 343 348 351 356 0 2 4 5 5 4 2 1 1 360 359 358 358 357 358 360 1 2 2 3 4 5 5 5 6 6 6 6 7 7 7 6 6 5 4 1 359 358 358 358 358
127 123 115 96 58 32 18 7 2 0 360 358 356 354 351 348 343 340 339 337 334 331 329 328 330 331 330 330 330 329 329 329 328 326 323 321 320 318 317 318 322 327 334 341 346 350 355 359 1 3 4 4 3 1 1 0 359 358 357 357 357 359 1 2 3 3 4 4 5 6 6 6 7 7 7 7 7 6 6 6 5 4 2 359 358 358 358 358
134 133 126 92 20 7 357 351 350 351 352 353 352 352 350 347 344 341 341 341 338 336 334 332 331 329 328 328 329 330 331 333 336 335 330 327 326 326 326 326 326 329 335 340 345 349 355 359 1 3 4 3 2 1 0 360 359 358 356 356 357 359 2 3 4 4 5 5 5 6 7 7 7 8 8 7 6 6 6 6 5 4 1 359 359 359 359 359
143 148 329 341 343 343 343 344 346 349 350 351 351 351 351 349 346 344 345 346 345 344 341 338 335 333 330 330 330 330 331 333 338 339 337 333 331 330 332 332 333 334 337 341 345 350 354 358 1 2 3 2 1 0 360 359 359 358 356 355 356 359 2 4 4 5 6 7 7 6 7 7 8 8 8 7 6 6 6 6 6 4 1 360 359 359 359 359
252 314 322 330 333 335 339 342 345 348 349 350 351 352 351 350 348 346 346 347 345 343 341 338 336 336 335 333 332 332 331 333 337 340 341 340 338 335 334 335 336 338 340 342 346 350 354 357 360 2 2 2 1 360 359 359 359 359 357 356 356 359 2 3 4 5 6 7 8 8 7 8 8 9 9 8 7 6 6 7 6 3 1 0 0 0 0 0
296 309 319 324 328 333 338 342 345 347 348 349 352 353 350 348 346 345 342 340 339 337 336 335 334 335 336 336 335 334 333 334 337 340 342 344 344 342 340 340 339 340 341 344 347 351 354 356 359 1 1 1 1 360 359 359 359 360 359 357 356 359 2 3 3 5 6 6 8 9 8 8 8 9 10 9 8 7 7 7 6 3 1 1 1 1 1 1
293 303 312 320 325 331 336 342 346 347 347 348 351 352 350 345 342 339 336 334 333 333 333 333 334 334 335 336 336 336 336 337 338 340 342 345 346 346 345 343 341 342 344 346 348 351 354 356 358 359 359 360 0 0 359 359 359 0 0 359 357 359 2 3 4 4 5 6 7 9 10 8 8 9 10 10 9 8 7 8 6 3 2 2 3 2 2 2
291 299 306 314 320 327 335 342 347 348 348 347 348 348 347 343 339 336 332 330 330 331 332 333 334 335 336 336 337 338 339 339 340 341 342 344 345 346 345 343 343 345 346 347 348 351 353 356 357 357 358 358 359 360 360 359 360 1 1 360 358 359 2 3 4 3 5 6 7 9 10 9 9 10 10 10 9 9 8 8 6 3 3 4 4 4 4 4
286 295 303 310 317 326 335 341 344 345 345 344 344 344 343 341 337 334 331 328 328 328 328 332 335 337 337 338 338 340 341 341 341 341 341 342 344 344 344 343 344 346 346 346 347 350 352 355 356 356 356 357 358 359 359 360 0 1 1 0 359 359 1 3 3 3 4 6 7 8 9 10 9 10 10 10 10 9 9 9 7 4 3 5 5 6 6 6
277 288 298 307 316 325 331 335 336 337 338 338 338 339 339 339 337 334 330 326 324 324 323 326 332 335 337 339 340 341 342 342 341 341 342 342 343 344 343 343 344 344 344 345 346 348 350 353 355 354 354 354 356 359 359 359 0 1 0 0 360 359 1 3 3 3 4 5 7 8 8 9 9 9 10 10 10 9 9 9 7 5 5 6 7 8 8 8
263 277 292 302 310 317 323 325 326 327 329 330 331 332 335 337 337 335 331 325 320 319 318 318 324 331 334 337 340 341 342 342 342 342 343 343 343 342 342 342 343 342 341 343 345 345 348 351 352 353 353 352 354 357 359 358 360 1 0 0 -0 359 0 2 3 3 4 5 7 8 8 8 9 9 10 10 10 9 9 9 8 6 6 8 9 9 10 10
255 273 287 297 303 309 315 316 317 318 319 321 323 326 330 333 335 335 333 329 321 315 313 313 315 322 328 331 335 338 339 339 340 341 342 342 341 340 340 340 340 339 339 342 343 344 345 347 349 351 351 351 351 355 358 358 359 0 0 360 -0 359 360 2 3 3 4 5 6 8 9 9 8 8 9 10 10 9 10 10 8 6 7 9 11 11 12 11
254 272 285 293 297 303 309 311 311 311 312 313 316 320 326 330 332 332 332 331 326 318 311 309 310 313 318 323 327 332 335 336 337 338 339 340 340 338 338 338 337 336 338 340 342 342 343 345 347 349 349 349 350 352 355 357 357 359 -0 360 360 359 359 1 3 2 4 5 6 7 8 9 9 8 9 9 10 9 10 10 9 7 8 11 12 14 14 14
258 271 282 288 292 297 303 305 305 305 306 308 312 317 321 325 329 330 328 328 328 323 314 308 307 308 309 313 319 325 330 333 335 336 337 338 339 339 339 338 336 336 337 338 340 340 341 343 345 348 348 347 348 349 352 354 354 356 359 360 360 359 359 1 2 2 3 5 5 6 7 9 9 8 8 9 10 9 9 11 10 8 9 12 15 16 16 16
262 272 279 284 288 293 298 299 298 300 302 306 311 314 318 321 324 326 325 323 324 325 320 311 306 305 304 305 310 317 323 328 332 334 335 337 338 339 340 339 337 336 337 337 337 338 340 341 344 347 347 345 345 346 349 351 351 353 356 358 359 359 359 360 2 2 2 3 5 5 6 8 9 8 7 8 9 9 9 10 11 9 10 14 16 18 18 18
264 271 276 280 285 290 292 292 293 296 301 306 309 311 314 317 319 321 321 319 318 320 322 317 310 305 302 300 302 308 315 321 326 330 332 334 336 338 339 339 338 337 337 337 337 337 338 339 342 344 344 343 343 344 346 348 348 349 353 356 358 358 358 359 0 2 2 2 4 5 6 7 8 8 7 7 8 9 9 9 10 10 11 14 17 18 19 20
265 269 273 277 282 285 287 287 288 293 301 306 308 310 311 313 314 316 317 316 314 314 316 318 315 308 303 299 298 301 306 313 319 324 328 330 332 334 336 337 338 337 337 336 336 336 336 337 338 339 339 340 340 341 343 345 346 346 349 353 356 357 358 358 358 0 1 2 4 5 5 6 7 7 7 7 7 8 8 9 9 9 10 13 17 19 20 20
264 267 270 274 278 282 284 284 287 293 301 307 308 309 309 309 310 312 312 312 311 310 310 313 314 311 305 300 296 296 300 306 311 317 322 325 327 329 330 332 334 336 337 336 334 335 335 334 334 335 336 337 337 339 341 343 344 344 346 350 353 354 356 357 357 358 -0 1 3 5 5 6 6 6 6 6 6 7 8 8 9 9 9 12 16 19 20 21
Height
10730 10731 10732 10733 10734 10735 10736 10737 10738 10739 10740 10741 10742 10743 10744 10745 10746 10747 10748 10749 10750 10751 10752 10753 10754 10755 10757 10758 10759 10761 10762 10763 10764 10765 10766 10766 10766 10767 10767 10767 10767 10767 10766 10766 10766 10765 10764 10763 10762 10761 10760 10758 10757 10755 10754 10752 10751 10749 10747 10745 10742 10739 10736 10733 10731 10728 10725 10722 10719 10716 10712 10708 10703 10699 10694 10690 10685 10680 10675 10670 10665 10660 10655 10650 10644 10639 10635 10630
10731 10732 10733 10734 10735 10736 10737 10738 10739 10740 10741 10742 10743 10744 10745 10746 10746 10747 10748 10749 10750 10751 10752 10753 10754 10755 10756 10757 10759 10760 10761 10762 10763 10763 10764 10764 10764 10765 10765 10765 10765 10765 10764 10764 10763 10763 10762 10761 10760 10758 10757 10755 10754 10752 10751 10750 10748 10746 10744 10741 10738 10735 10733 10730 10727 10725 10722 10719 10716 10712 10708 10704 10700 10695 10691 10686 10681 10676 10671 10666 10661 10655 10650 10644 10639 10633 10628 10624
10732 10733 10734 10735 10736 10737 10738 10739 10740 10741 10742 10743 10744 10745 10745 10746 10747 10748 10749 10750 10751 10751 10752 10753 10754 10755 10756 10757 10758 10759 10760 10761 10761 10762 10762 10762 10763 10763 10763 10763 10763 10763 10763 10762 10762 10761 10760 10758 10757 10755 10754 10752 10751 10750 10749 10747 10745 10743 10740 10738 10735 10733 10730 10728 10725 10722 10719 10716 10713 10709 10705 10701 10697 10693 10688 10683 10678 10673 10667 10662 10656 10650 10644 10638 10633 10627 10622 10617
10733 10734 10735 10736 10737 10738 10738 10739 10740 10742 10743 10743 10744 10745 10746 10747 10747 10748 10749 10750 10750 10751 10752 10753 10754 10754 10755 10756 10757 10758 10759 10759 10760 10760 10760 10761 10761 10761 10761 10762 10762 10762 10761 10761 10760 10759 10757 10756 10754 10753 10752 10750 10749 10748 10746 10744 10742 10740 10738 10736 10733 10731 10729 10726 10723 10720 10717 10714 10710 10707 10703 10699 10695 10690 10685 10679 10674 10668 10662 10656 10650 10643 10637 10631 10625 10620 10615 10609
10734 10735 10736 10736 10737 10738 10739 10740 10741 10742 10743 10744 10744 10745 10746 10746 10747 10748 10748 10749 10750 10750 10751 10752 10753 10753 10754 10755 10756 10757 10757 10758 10758 10758 10759 10759 10759 10760 10760 10760 10760 10760 10759 10759 10758 10756 10755 10754 10753 10751 10750 10749 10747 10745 10744 10742 10740 10738 10736 10734 10732 10730 10727 10725 10722 10719 10716 10712 10709 10705 10701 10696 10691 10686 10681 10675 10668 10662 10655 10649 10642 10636 10629 10623 10617 10612 10606 10601
10735 10735 10736 10737 10738 10739 10740 10741 10741 10742 10743 10743 10744 10745 10745 10746 10746 10747 10748 10748 10749 10750 10750 10751 10752 10752 10753 10754 10754 10755 10756 10756 10757 10757 10758 10758 10758 10758 10759 10759 10759 10758 10758 10757 10756 10755 10754 10752 10751 10750 10748 10747 10745 10744 10742 10740 10739 10737 10735 10734 10731 10729 10726 10724 10721 10718 10715 10711 10708 10703 10699 10694 10688 10682 10676 10669 10662 10655 10648 10641 10635 10628 10621 10615 10609 10603 10598 10592
10734 10735 10736 10738 10739 10740 10740 10741 10742 10742 10743 10743 10744 10744 10745 10745 10746 10747 10747 10748 10748 10749 10750 10750 10751 10751 10752 10753 10753 10754 10755 10755 10756 10756 10757 10757 10757 10758 10758 10758 10757 10757 10756 10756 10755 10754 10752 10751 10749 10748 10747 10745 10744 10742 10741 10739 10738 10736 10735 10733 10730 10728 10726 10723 10720 10717 10714 10710 10706 10701 10695 10690 10683 10677 10670 10663 10656 10649 10642 10635 10628 10621 10614 10607 10601 10596 10590 10584
10733 10735 10736 10737 10739 10740 10741 10742 10742 10742 10743 10743 10744 10744 10745 10745 10746 10746 10747 10747 10748 10749 10750 10750 10751 10751 10752 10752 10753 10754 10755 10755 10756 10756 10757 10757 10757 10757 10757 10757 10757 10756 10755 10755 10754 10752 10751 10750 10748 10747 10746 10744 10743 10742 10740 10739 10737 10736 10734 10732 10730 10728 10725 10723 10720 10716 10712 10707 10702 10697 10691 10685 10678 10672 10665 10658 10651 10643 10636 10629 10622 10615 10607 10600 10594 10588 10582 10577
10733 10734 10736 10737 10739 10740 10741 10741 10742 10742 10743 10743 10744 10744 10745 10746 10746 10747 10747 10748 10748 10749 10750 10751 10751 10752 10753 10753 10754 10754 10755 10756 10756 10757 10757 10757 10757 10757 10757 10757 10756 10756 10755 10754 10753 10751 10750 10749 10748 10746 10745 10744 10743 10741 10740 10738 10737 10735 10733 10731 10729 10727 10725 10722 10718 10713 10709 10704 10698 10692 10686 10680 10674 10667 10660 10653 10646 10638 10630 10623 10616 10609 10602 10595 10588 10582 10576 10570
10733 10734 10735 10737 10738 10739 10740 10741 10742 10742 10743 10743 10744 10745 10745 10746 10747 10748 10748 10749 10749 10750 10751 10752 10753 10753 10754 10754 10755 10756 10756 10757 10757 10757 10757 10757 10757 10757 10757 10757 10756 10755 10755 10754 10752 10751 10750 10749 10748 10746 10745 10744 10742 10741 10739 10737 10736 10734 10732 10730 10728 10726 10722 10719 10714 10710 10705 10699 10693 10688 10682 10676 10669 10662 10655 10648 10641 10633 10625 10617 10610 10603 10596 10589 10582 10575 10569 10563
10734 10735 10736 10737 10738 10739 10740 10741 10742 10743 10743 10744 10745 10746 10747 10747 10748 10749 10750 10751 10751 10752 10752 10753 10754 10755 10755 10755 10756 10757 10758 10758 10758 10757 10757 10757 10758 10757 10757 10757 10756 10755 10755 10754 10752 10751 10750 10749 10748 10746 10745 10743 10742 10740 10738 10736 10735 10733 10731 10729 10726 10723 10719 10715 10711 10706 10700 10695 10690 10684 10678 10672 10664 10658 10651 10644 10636 10628 10620 10612 10604 10596 10589 10583 10576 10570 10564 10557
10735 10736 10737 10738 10739 10740 10741 10742 10743 10744 10745 10746 10747 10748 10749 10749 10750 10751 10752 10753 10753 10753 10754 10755 10756 10756 10757 10756 10757 10758 10759 10758 10758 10758 10758 10758 10758 10758 10757 10757 10756 10756 10755 10754 10753 10752 10750 10749 10748 10746 10745 10743 10741 10739 10737 10735 10733 10731 10729 10726 10723 10720 10716 10712 10707 10702 10696 10691 10686 10680 10674 10667 10660 10653 10646 10639 10631 10623 10615 10607 10599 10591 10584 10577 10571 10565 10558 10552
10736 10737 10739 10740 10741 10742 10743 10744 10746 10747 10748 10748 10749 10750 10751 10752 10753 10753 10754 10754 10755 10755 10756 10757 10757 10758 10758 10758 10759 10759 10759 10759 10758 10759 10759 10759 10758 10758 10758 10757 10757 10756 10755 10754 10753 10752 10751 10750 10748 10746 10744 10742 10740 10738 10736 10735 10732 10730 10727 10724 10720 10717 10713 10708 10703 10698 10693 10688 10682 10676 10669 10662 10656 10649 10642 10634 10626 10618 10611 10603 10595 10587 10580 10573 10566 10560 10553 10547
10739 10740 10741 10742 10744 10745 10746 10747 10748 10749 10750 10751 10752 10753 10754 10754 10755 10756 10756 10756 10757 10757 10758 10758 10759 10759 10758 10759 10760 10760 10759 10759 10760 10759 10759 10759 10759 10759 10759 10758 10757 10757 10756 10755 10754 10753 10751 10750 10748 10746 10744 10742 10740 10738 10736 10733 10731 10728 10725 10721 10718 10714 10710 10705 10700 10696 10690 10684 10678 10672 10665 10658 10652 10645 10638 10630 10621 10613 10606 10598 10590 10583 10576 10569 10562 10555 10549 10543
10742 10743 10744 10745 10747 10748 10749 10750 10751 10752 10753 10754 10755 10755 10756 10757 10757 10757 10758 10758 10759 10759 10759 10760 10760 10760 10759 10760 10761 10760 10760 10760 10760 10760 10760 10760 10760 10760 10759 10759 10758 10757 10757 10756 10755 10753 10751 10749 10747 10745 10743 10741 10739 10737 10735 10732 10729 10726 10723 10720 10716 10712 10707 10702 10698 10693 10687 10681 10675 10668 10662 10655 10648 10641 10633 10625 10617 10609 10601 10593 10586 10579 10572 10565 10558 10551 10544 10538
10745 10746 10748 10749 10750 10751 10752 10753 10754 10755 10756 10757 10757 10758 10758 10759 10759 10759 10759 10760 10760 10761 10761 10761 10761 10760 10760 10761 10761 10761 10761 10761 10761 10761 10762 10762 10761 10761 10760 10760 10759 10758 10757 10756 10754 10752 10750 10748 10746 10745 10743 10740 10738 10736 10733 10731 10728 10724 10721 10718 10714 10709 10705 10700 10695 10690 10684 10678 10672 10665 10659 10652 10645 10637 10629 10621 10613 10605 10598 10590 10582 10575 10568 10560 10554 10547 10540 10533
10748 10749 10750 10752 10753 10754 10755 10756 10757 10758 10759 10760 10760 10761 10761 10761 10761 10761 10761 10761 10761 10761 10762 10762 10761 10761 10762 10762 10762 10762 10762 10762 10762 10763 10763 10763 10762 10762 10761 10761 10760 10759 10758 10756 10754 10751 10749 10747 10746 10744 10741 10739 10737 10734 10732 10729 10725 10722 10719 10716 10711 10707 10703 10698 10693 10687 10681 10675 10669 10663 10656 10649 10642 10634 10626 10618 10610 10602 10595 10587 10580 10572 10565 10557 10550 10543 10536 10529
10751 10752 10753 10754 10755 10756 10757 10759 10759 10760 10761 10762 10762 10763 10763 10763 10763 10763 10762 10762 10762 10762 10763 10763 10762 10762 10763 10764 10764 10763 10763 10763 10763 10764 10764 10764 10763 10763 10762 10761 10760 10759 10757 10755 10753 10751 10748 10746 10745 10743 10741 10738 10736 10733 10730 10727 10724 10721 10717 10714 10709 10705 10701 10696 10691 10685 10679 10673 10667 10660 10654 10647 10639 10632 10624 10616 10608 10601 10593 10586 10579 10571 10564 10556 10549 10541 10534 10526
10753 10754 10756 10757 10758 10759 10760 10761 10762 10763 10763 10764 10764 10765 10765 10765 10765 10764 10764 10763 10763 10763 10764 10764 10764 10764 10764 10765 10765 10765 10765 10765 10765 10765 10765 10765 10764 10763 10762 10762 10760 10759 10757 10755 10753 10751 10748 10746 10745 10743 10740 10737 10734 10732 10729 10725 10722 10719 10716 10712 10708 10704 10699 10694 10689 10683 10677 10671 10664 10658 10652 10645 10637 10630 10622 10614 10607 10600 10593 10586 10578 10571 10563 10556 10548 10541 10533 10525
10756 10757 10758 10760 10761 10762 10763 10764 10764 10765 10765 10766 10766 10766 10766 10766 10766 10765 10765 10764 10765 10765 10765 10765 10765 10765 10765 10766 10766 10766 10766 10766 10766 10766 10766 10765 10764 10764 10763 10762 10760 10759 10757 10755 10753 10751 10748 10746 10745 10742 10739 10736 10734 10731 10728 10724 10721 10718 10715 10711 10707 10702 10697 10692 10687 10681 10675 10668 10662 10656 10650 10643 10636 10629 10621 10614 10607 10600 10593 10585 10578 10570 10562 10555 10547 10540 10532 10525
10759 10760 10761 10763 10764 10765 10765 10766 10766 10767 10767 10767 10768 10767 10767 10767 10767 10767 10767 10766 10766 10766 10766 10766 10766 10766 10766 10767 10767 10767 10767 10767 10767 10767 10766 10766 10765 10764 10763 10762 10760 10758 10757 10755 10753 10751 10748 10746 10744 10741 10738 10735 10733 10730 10726 10723 10720 10717 10714 10710 10706 10701 10696 10691 10685 10679 10673 10667 10661 10655 10648 10641 10634 10628 10621 10613 10606 10600 10593 10586 10578 10570 10562 10554 10547 10539 10532 10524
10762 10763 10764 10765 10766 10767 10767 10768 10768 10768 10768 10768 10769 10768 10768 10769 10768 10768 10768 10768 10767 10767 10768 10768 10768 10768 10768 10768 10768 10768 10768 10768 10768 10767 10767 10766 10765 10764 10763 10761 10760 10758 10757 10755 10753 10751 10748 10746 10744 10740 10737 10734 10732 10729 10726 10723 10720 10717 10713 10709 10705 10700 10695 10689 10683 10677 10671 10666 10660 10653 10647 10640 10634 10627 10620 10613 10606 10599 10593 10586 10578 10570 10562 10554 10547 10539 10532 10524
10764 10766 10767 10767 10768 10768 10769 10769 10769 10770 10770 10770 10770 10770 10770 10770 10769 10769 10770 10769 10768 10768 10769 10769 10769 10769 10769 10769 10769 10769 10769 10769 10768 10767 10767 10766 10765 10764 10762 10761 10760 10758 10757 10755 10753 10750 10748 10746 10743 10740 10737 10734 10731 10728 10725 10722 10719 10716 10713 10709 10704 10699 10694 10688 10682 10676 10671 10665 10658 10652 10646 10639 10633 10626 10619 10612 10605 10598 10592 10584 10577 10570 10562 10554 10547 10539 10531 10523
10767 10768 10768 10769 10770 10770 10771 10771 10771 10771 10771 10771 10771 10771 10771 10771 10770 10770 10770 10769 10769 10769 10770 10770 10770 10770 10770 10770 10770 10769 10769 10769 10768 10768 10767 10767 10765 10764 10763 10761 10760 10758 10756 10755 10753 10750 10748 10746 10743 10740 10737 10734 10731 10728 10725 10722 10719 10716 10712 10708 10703 10698 10693 10687 10681 10675 10670 10664 10658 10651 10644 10638 10632 10625 10618 10611 10604 10597 10590 10583 10576 10568 10560 10553 10545 10538 10530 10523
10769 10770 10770 10771 10771 10772 10772 10773 10773 10773 10773 10773 10772 10772 10772 10771 10771 10771 10771 10770 10770 10770 10771 10771 10771 10771 10771 10771 10770 10770 10770 10769 10768 10768 10767 10767 10765 10764 10763 10761 10759 10758 10756 10754 10752 10750 10749 10746 10743 10740 10736 10733 10730 10727 10724 10721 10718 10715 10711 10707 10702 10697 10691 10686 10680 10674 10669 10663 10657 10651 10644 10637 10631 10623 10616 10609 10603 10596 10589 10581 10574 10566 10559 10551 10543 10536 10528 10520
10770 10771 10772 10772 10773 10773 10774 10774 10774 10774 10774 10773 10773 10773 10773 10772 10772 10772 10771 10771 10771 10771 10771 10772 10772 10772 10772 10771 10771 10770 10770 10769 10769 10768 10767 10766 10765 10764 10762 10761 10759 10757 10756 10754 10752 10751 10749 10746 10743 10739 10736 10733 10730 10727 10723 10721 10718 10714 10710 10705 10701 10696 10690 10685 10679 10674 10668 10663 10657 10650 10643 10636 10628 10621 10614 10608 10601 10594 10587 10579 10572 10564 10557 10549 10542 10534 10526 10518
10772 10773 10773 10774 10774 10774 10775 10775 10775 10775 10774 10774 10774 10774 10774 10774 10773 10773 10773 10772 10772 10772 10772 10772 10772 10772 10772 10771 10771 10771 10770 10769 10769 10768 10767 10766 10765 10764 10762 10761 10759 10757 10756 10754 10752 10751 10748 10745 10742 10739 10736 10733 10730 10726 10723 10720 10717 10713 10709 10704 10699 10695 10689 10684 10679 10673 10668 10662 10656 10648 10641 10634 10627 10620 10613 10606 10599 10592 10584 10577 10569 10562 10555 10548 10540 10532 10525 10517
10773 10774 10774 10775 10775 10775 10776 10776 10776 10776 10776 10776 10776 10776 10775 10775 10775 10774 10774 10774 10773 10773 10773 10773 10772 10772 10772 10771 10771 10771 10770 10769 10768 10768 10767 10766 10765 10763 10762 10761 10759 10758 10756 10754 10752 10751 10748 10745 10742 10739 10736 10732 10729 10726 10723 10720 10716 10712 10708 10703 10699 10694 10689 10683 10678 10673 10667 10661 10655 10648 10641 10634 10627 10620 10613 10605 10597 10590 10582 10575 10567 10560 10552 10545 10538 10530 10523 10515
10774 10775 10775 10776 10776 10777 10777 10777 10777 10777 10777 10777 10777 10777 10777 10776 10776 10775 10775 10774 10774 10774 10773 10773 10773 10772 10772 10771 10771 10770 10770 10769 10768 10768 10767 10766 10764 10763 10762 10761 10759 10758 10756 10754 10752 10750 10748 10745 10742 10739 10735 10732 10729 10727 10723 10720 10716 10711 10707 10703 10699 10693 10688 10683 10678 10672 10666 10660 10654 10648 10641 10635 10627 10620 10612 10604 10597 10589 10581 10573 10565 10558 10551 10544 10536 10528 10521 10513
10775 10776 10777 10777 10777 10778 10778 10778 10778 10778 10778 10778 10778 10777 10777 10777 10776 10776 10775 10775 10774 10774 10773 10773 10773 10772 10771 10771 10770 10770 10769 10769 10768 10767 10766 10765 10764 10763 10762 10760 10759 10758 10756 10754 10752 10750 10747 10744 10741 10738 10735 10732 10730 10726 10723 10719 10715 10711 10706 10702 10698 10693 10688 10683 10678 10672 10666 10660 10654 10648 10641 10635 10627 10620 10612 10604 10596 10588 10580 10572 10565 10557 10550 10543 10535 10527 10519 10511
10776 10777 10778 10778 10779 10779 10779 10779 10779 10779 10779 10779 10778 10778 10777 10777 10776 10776 10775 10775 10774 10774 10773 10773 10772 10772 10771 10771 10770 10769 10769 10768 10767 10767 10766 10765 10764 10763 10762 10760 10758 10757 10755 10754 10752 10750 10747 10744 10741 10738 10735 10732 10729 10726 10722 10718 10714 10710 10706 10701 10697 10692 10687 10682 10678 10672 10666 10660 10654 10647 10640 10633 10626 10619 10613 10605 10596 10587 10579 10571 10564 10557 10550 10543 10535 10527 10518 10510
10777 10778 10779 10779 10780 10780 10780 10780 10780 10780 10780 10779 10779 10778 10778 10777 10776 10776 10775 10774 10774 10773 10773 10772 10772 10771 10770 10770 10769 10769 10768 10767 10767 10766 10765 10764 10763 10762 10761 10759 10758 10756 10755 10753 10751 10749 10746 10743 10741 10738 10735 10732 10728 10725 10721 10718 10714 10709 10705 10701 10696 10691 10686 10681 10676 10671 10665 10660 10654 10647 10640 10633 10626 10619 10612 10604 10596 10587 10579 10571 10564 10557 10550 10543 10535 10527 10518 10509
10778 10779 10780 10780 10781 10781 10781 10781 10781 10781 10780 10780 10779 10779 10778 10777 10776 10775 10774 10774 10773 10773 10772 10772 10771 10770 10770 10769 10768 10768 10767 10766 10766 10765 10764 10763 10762 10761 10760 10758 10757 10756 10754 10753 10751 10749 10746 10743 10741 10738 10734 10731 10727 10724 10721 10717 10713 10709 10705 10700 10696 10692 10687 10682 10676 10670 10665 10659 10653 10646 10640 10633 10626 10618 10610 10602 10595 10587 10580 10572 10564 10557 10550 10543 10535 10526 10518 10509
10779 10780 10780 10781 10781 10781 10781 10782 10781 10781 10780 10780 10779 10779 10778 10777 10776 10775 10774 10773 10772 10772 10771 10771 10770 10770 10769 10768 10767 10767 10766 10765 10764 10764 10763 10762 10761 10760 10759 10758 10756 10755 10753 10752 10750 10748 10746 10743 10740 10737 10734 10730 10727 10723 10720 10717 10713 10709 10705 10700 10696 10691 10686 10681 10675 10670 10664 10658 10651 10645 10639 10632 10625 10617 10610 10602 10594 10587 10580 10572 10565 10558 10550 10543 10535 10526 10518 10509
10780 10780 10781 10781 10781 10782 10782 10782 10782 10781 10781 10780 10779 10778 10777 10777 10776 10775 10774 10773 10772 10771 10770 10770 10769 10768 10768 10767 10766 10765 10764 10764 10763 10763 10762 10761 10760 10759 10758 10756 10755 10754 10752 10751 10749 10747 10745 10742 10740 10737 10733 10730 10726 10723 10719 10716 10712 10708 10704 10700 10696 10691 10686 10680 10674 10668 10662 10657 10651 10644 10638 10631 10623 10615 10608 10601 10594 10586 10579 10572 10565 10558 10550 10543 10535 10526 10517 10508
10780 10781 10781 10781 10782 10782 10782 10782 10782 10781 10781 10780 10779 10778 10777 10776 10775 10774 10773 10772 10772 10771 10770 10769 10768 10767 10766 10766 10765 10764 10763 10763 10762 10761 10760 10759 10758 10757 10756 10755 10754 10753 10752 10750 10748 10746 10744 10742 10739 10736 10732 10729 10726 10723 10719 10715 10711 10707 10703 10699 10696 10691 10686 10681 10676 10669 10662 10656 10650 10644 10637 10630 10623 10615 10607 10599 10592 10585 10578 10571 10564 10556 10549 10541 10533 10525 10516 10507
10780 10781 10781 10781 10782 10782 10782 10782 10782 10781 10780 10780 10779 10778 10777 10776 10775 10774 10773 10772 10771 10770 10769 10768 10767 10766 10765 10765 10764 10763 10762 10762 10761 10760 10759 10758 10757 10756 10755 10754 10753 10752 10751 10749 10747 10745 10743 10741 10738 10735 10732 10729 10725 10722 10719 10715 10711 10707 10703 10698 10694 10691 10687 10682 10678 10673 10666 10658 10651 10645 10638 10631 10623 10616 10607 10599 10592 10585 10577 10570 10562 10555 10547 10539 10532 10524 10515 10506
10780 10780 10781 10781 10781 10781 10781 10781 10781 10781 10780 10779 10778 10777 10776 10775 10774 10773 10773 10772 10771 10770 10769 10768 10767 10766 10765 10764 10763 10762 10761 10760 10760 10759 10758 10757 10756 10755 10754 10753 10752 10751 10750 10748 10746 10745 10742 10740 10737 10734 10731 10728 10725 10722 10718 10715 10711 10707 10702 10698 10693 10690 10686 10683 10679 10674 10669 10662 10654 10646 10640 10633 10625 10617 10609 10601 10593 10585 10577 10569 10561 10553 10546 10538 10530 10522 10514 10505
10779 10779 10780 10780 10780 10781 10781 10780 10780 10780 10779 10779 10778 10777 10776 10775 10774 10773 10772 10771 10770 10769 10768 10767 10766 10765 10764 10763 10762 10761 10760 10759 10758 10757 10756 10755 10754 10754 10753 10752 10751 10750 10749 10747 10745 10744 10741 10739 10737 10734 10731 10728 10724 10721 10718 10714 10710 10706 10702 10697 10692 10688 10685 10681 10677 10672 10668 10663 10657 10649 10641 10634 10627 10619 10611 10603 10594 10586 10578 10570 10562 10554 10547 10539 10531 10522 10514 10505
10778 10778 10779 10779 10779 10780 10780 10779 10779 10779 10778 10778 10777 10776 10776 10775 10774 10773 10772 10771 10770 10769 10767 10766 10765 10764 10763 10762 10761 10760 10759 10758 10757 10756 10755 10754 10753 10753 10752 10751 10750 10749 10748 10746 10744 10743 10740 10738 10736 10733 10730 10727 10724 10721 10717 10714 10710 10706 10702 10697 10692 10688 10684 10679 10675 10670 10666 10661 10656 10650 10642 10634 10627 10620 10613 10606 10597 10588 10579 10572 10564 10557 10549 10541 10533 10524 10516 10507
10777 10777 10778 10778 10778 10779 10779 10779 10778 10778 10778 10777 10777 10776 10775 10774 10773 10772 10771 10770 10769 10768 10767 10766 10765 10763 10762 10761 10760 10759 10758 10757 10756 10755 10754 10753 10752 10752 10751 10750 10749 10748 10746 10745 10743 10741 10739 10737 10734 10732 10729 10727 10724 10721 10717 10713 10710 10706 10701 10697 10692 10688 10684 10679 10674 10669 10664 10658 10653 10649 10642 10634 10627 10620 10613 10606 10599 10590 10581 10573 10566 10559 10551 10543 10535 10526 10518 10508
10776 10776 10777 10777 10777 10777 10778 10778 10778 10777 10777 10776 10776 10775 10775 10774 10773 10772 10770 10769 10768 10767 10766 10765 10764 10763 10762 10760 10760 10759 10758 10757 10756 10755 10754 10753 10752 10751 10750 10749 10748 10747 10745 10744 10742 10740 10738 10736 10733 10731 10728 10726 10723 10720 10717 10713 10709 10705 10701 10696 10692 10687 10683 10679 10674 10669 10664 10658 10651 10646 10641 10635 10628 10621 10613 10606 10599 10591 10583 10574 10567 10560 10552 10544 10536 10527 10518 10508
10775 10775 10775 10776 10776 10776 10776 10776 10776 10776 10776 10775 10775 10774 10774 10773 10772 10771 10770 10769 10768 10766 10765 10764 10763 10762 10761 10760 10759 10758 10757 10756 10755 10754 10753 10752 10751 10750 10749 10748 10747 10745 10744 10742 10741 10739 10737 10735 10732 10730 10727 10725 10722 10719 10716 10712 10708 10704 10700 10696 10692 10687 10683 10679 10674 10668 10663 10658 10651 10645 10640 10635 10628 10620 10614 10606 10599 10592 10584 10576 10568 10561 10553 10544 10536 10527 10517 10507
10773 10774 10774 10774 10775 10775 10775 10775 10775 10775 10775 10774 10774 10773 10773 10772 10771 10770 10769 10768 10767 10766 10765 10763 10762 10761 10760 10759 10758 10757 10756 10755 10754 10753 10752 10751 10750 10749 10748 10747 10746 10744 10743 10741 10740 10738 10736 10734 10732 10729 10726 10723 10721 10719 10715 10711 10708 10704 10700 10696 10692 10687 10683 10679 10674 10668 10663 10658 10652 10645 10638 10633 10627 10621 10614 10607 10599 10592 10585 10577 10570 10562 10553 10543 10535 10526 10517 10507
10772 10772 10773 10773 10773 10774 10774 10774 10774 10774 10773 10773 10773 10772 10771 10771 10770 10769 10768 10767 10766 10765 10764 10763 10761 10760 10759 10758 10757 10756 10755 10754 10753 10752 10751 10750 10749 10748 10747 10746 10745 10743 10742 10740 10738 10736 10734 10733 10731 10728 10726 10723 10720 10718 10715 10711 10707 10703 10699 10696 10692 10687 10683 10679 10675 10669 10663 10657 10652 10646 10639 10631 10625 10619 10612 10606 10599 10592 10584 10576 10569 10562 10553 10543 10534 10525 10516 10507
10770 10771 10771 10772 10772 10772 10772 10772 10772 10772 10772 10772 10771 10771 10770 10769 10769 10768 10767 10766 10765 10764 10762 10761 10760 10759 10758 10757 10757 10756 10755 10754 10753 10752 10751 10750 10748 10747 10746 10745 10743 10742 10741 10739 10737 10735 10732 10731 10729 10727 10724 10722 10719 10717 10714 10711 10707 10703 10699 10695 10691 10686 10682 10679 10675 10670 10665 10658 10652 10647 10641 10634 10627 10619 10612 10605 10599 10593 10585 10577 10569 10562 10553 10544 10535 10526 10517 10508
10768 10769 10769 10770 10770 10771 10771 10771 10771 10771 10770 10770 10770 10769 10768 10768 10767 10766 10765 10764 10763 10762 10761 10760 10759 10758 10757 10756 10756 10755 10754 10753 10752 10751 10750 10749 10747 10746 10745 10743 10742 10741 10739 10738 10736 10733 10731 10729 10727 10724 10722 10720 10717 10715 10713 10709 10706 10702 10699 10694 10690 10686 10681 10678 10674 10669 10665 10660 10653 10648 10642 10636 10629 10622 10616 10609 10602 10594 10587 10580 10572 10563 10554 10545 10536 10527 10518 10509
10766 10767 10767 10768 10768 10769 10769 10769 10769 10769 10768 10768 10768 10767 10767 10766 10765 10764 10764 10763 10762 10761 10760 10759 10758 10757 10756 10755 10754 10753 10752 10752 10751 10750 10748 10747 10746 10745 10743 10742 10740 10739 10737 10736 10734 10732 10730 10727 10725 10723 10720 10718 10715 10713 10711 10708 10705 10702 10698 10694 10690 10686 10681 10677 10674 10669 10664 10659 10654 10648 10643 10638 10631 10625 10618 10612 10604 10597 10590 10582 10575 10567 10557 10547 10537 10528 10519 10510
10764 10765 10765 10766 10766 10767 10767 10767 10766 10766 10766 10766 10765 10765 10764 10764 10763 10763 10762 10761 10760 10759 10758 10758 10757 10756 10755 10754 10753 10752 10751 10750 10749 10748 10747 10746 10745 10744 10742 10740 10739 10737 10736 10734 10733 10731 10728 10726 10724 10722 10720 10717 10714 10711 10709 10706 10703 10700 10698 10694 10690 10685 10681 10677 10673 10669 10663 10659 10654 10648 10642 10637 10632 10626 10620 10613 10606 10599 10591 10584 10577 10569 10559 10549 10539 10530 10521 10512
10762 10762 10763 10763 10764 10764 10764 10764 10764 10764 10764 10763 10763 10763 10762 10762 10761 10761 10760 10759 10759 10758 10757 10756 10755 10754 10753 10753 10752 10751 10750 10749 10748 10747 10746 10745 10743 10742 10741 10739 10737 10735 10734 10733 10731 10729 10727 10724 10722 10720 10718 10716 10713 10710 10708 10705 10702 10699 10697 10694 10690 10685 10681 10677 10673 10669 10664 10659 10654 10649 10642 10637 10631 10626 10620 10613 10607 10600 10592 10585 10578 10571 10561 10550 10540 10531 10522 10513
10759 10760 10760 10761 10761 10762 10762 10762 10762 10762 10761 10761 10761 10760 10760 10759 10759 10758 10758 10757 10757 10756 10755 10754 10754 10753 10752 10751 10750 10749 10748 10747 10746 10745 10744 10743 10742 10740 10739 10737 10735 10733 10732 10730 10729 10728 10726 10723 10721 10718 10716 10714 10711 10709 10706 10704 10701 10698 10695 10692 10689 10685 10681 10676 10672 10669 10664 10660 10654 10649 10643 10637 10631 10626 10620 10613 10607 10601 10594 10586 10579 10571 10563 10552 10542 10533 10524 10515
10756 10757 10757 10758 10759 10759 10759 10759 10759 10759 10759 10759 10758 10758 10757 10757 10756 10756 10755 10755 10754 10754 10753 10752 10752 10751 10750 10749 10748 10747 10746 10745 10744 10743 10742 10741 10740 10739 10737 10735 10733 10732 10730 10728 10727 10726 10724 10722 10720 10717 10715 10712 10710 10707 10704 10702 10699 10696 10693 10691 10688 10684 10680 10676 10672 10668 10664 10659 10655 10649 10643 10638 10632 10626 10619 10613 10607 10601 10594 10587 10579 10572 10564 10554 10545 10536 10527 10518